Regional Weather Roundup
Issued by NWS

Home | Current Version | Previous Version | Graphics & Text | Print | Product List | Glossary On
Versions: 1 2 3 4 5 6 7 8 9 10 11 12 13 14 15 16 17 18 19 20 21 22 23 24 25 26 27 28 29 30 31 32 33 34 35 36 37 38 39 40 41 42 43 44 45 46 47 48 49 50
000
ASUS43 KOAX 261310
RWRNE

WEATHER ROUNDUP FOR NEBRASKA
NATIONAL WEATHER SERVICE OMAHA NE
700 AM CST THU FEB 26 2015

NOTES: SATELLITE DATA IS BEING USED TO AUGMENT CLOUD COVER ABOVE
       12000 FEET.
       "FAIR" INDICATES FEW OR NO CLOUDS BELOW 12,000 FEET WITH NO
       SIGNIFICANT WEATHER AND/OR OBSTRUCTIONS TO VISIBILITY.

  * THESE STATIONS DO NOT REPORT WEATHER SUCH AS RAIN...SNOW OR FOG.

NEZ001>004-019>022-054>056-261400-
NEBRASKA PANHANDLE

CITY           SKY/WX    TMP DP  RH WIND       PRES   REMARKS
SCOTTSBLUFF    CLOUDY    10   2  69 NE9       30.28R WCI  -3
ALLIANCE       CLOUDY     9   4  80 NE10      30.27S WCI  -5
CHADRON        LGT SNOW   7   1  76 NE8       30.36S WCI  -6
KIMBALL        FLURRIES   9   6  86 CALM      30.18R
SIDNEY         CLOUDY    10   4  76 NE5       30.24S WCI   2
$$

NEZ057>060-069>072-079>082-261400-
SOUTHWEST NEBRASKA

CITY           SKY/WX    TMP DP  RH WIND       PRES   REMARKS
NORTH PLATTE   CLEAR      4  -2  76 NW7       30.38R WCI  -8
IMPERIAL         N/A     12   1  61 N17       30.33R WCI  -5
LEXINGTON      CLEAR      3  -1  82 N8        30.40S WCI -10
MCCOOK         CLEAR      8   1  73 NE6       30.38S WCI  -2
OGALLALA       CLOUDY    11   3  70 NE5       30.34S WCI   3
$$

NEZ005>010-023>029-035>040-094-261400-
NORTH CENTRAL NEBRASKA

CITY           SKY/WX    TMP DP  RH WIND       PRES   REMARKS
VALENTINE      PTCLDY     0  -6  76 N8        30.42R WCI -14
AINSWORTH      CLEAR     -2  -6  82 N10       30.40R WCI -18
BROKEN BOW     CLEAR      1  -4  79 N6        30.38R WCI -10
O`NEILL        CLEAR     -4  -8  81 NW9       30.44R WCI -20
ORD            CLEAR      1  -5  75 N8        30.42R WCI -13
THEDFORD       CLEAR      1  -3  81 N3        30.38R
$$

NEZ041-046>049-061>064-073>077-083>087-261400-
SOUTH CENTRAL NEBRASKA

CITY           SKY/WX    TMP DP  RH WIND       PRES   REMARKS
GRAND ISLAND   CLEAR      1  -7  68 N16       30.45R WCI -19
AURORA         CLEAR      1  -6  71 N18       30.43R WCI -19
HASTINGS       FAIR       3  -5  69 N18       30.41R WCI -17
HEBRON         CLEAR      5  -4  66 N14G20    30.44R WCI -12
HOLDREGE       CLEAR      4  -3  72 N15       30.39S WCI -14
KEARNEY *      CLEAR      3  -4  72 N16G22    30.41S WCI -16
YORK             N/A      1  -4  78 N16G24    30.43R WCI -18
$$

NEZ011>018-030>034-042>045-261400-
NORTHEAST NEBRASKA

CITY           SKY/WX    TMP DP  RH WIND       PRES   REMARKS
NORFOLK        CLEAR     -1  -7  75 NW16      30.45R WCI -21
ALBION         CLEAR     -1  -8  71 N12       30.44R WCI -18
BLAIR          CLEAR      1  -6  71 N14G20    30.41R WCI -17
COLUMBUS *     CLEAR      0 -15  50 N14       30.45S WCI -19
FREMONT        CLEAR      2  -5  73 NW16G22   30.45S WCI -18
TEKAMAH        CLEAR      0  -7  72 N15       30.47R WCI -19
WAYNE          CLEAR     -3  -8  77 N13       30.46S WCI -22
$$

NEZ050>053-065>068-078-088>093-261400-
SOUTHEAST NEBRASKA

CITY           SKY/WX    TMP DP  RH WIND       PRES   REMARKS
LINCOLN        CLEAR      3  -5  69 N23G30    30.45R WCI -19
OMAHA EPPLEY   PTCLDY     1  -5  75 N14       30.44R WCI -17
BEATRICE       CLEAR      3  -4  73 N22       30.44R WCI -19
FALLS CITY     CLEAR      5  -2  72 NW14G22   30.40R WCI -12
NEBRASKA CITY  CLEAR      2  -7  65 N15       30.41R WCI -16
PLATTSMOUTH    CLEAR      1  -6  70 NW14      30.42R WCI -17
$$

NEZ044-045-051>053-067-261400-
OMAHA AREA

CITY           SKY/WX    TMP DP  RH WIND       PRES   REMARKS
OMAHA EPPLEY   PTCLDY     1  -5  75 N14       30.44R WCI -17
BLAIR          CLEAR      1  -6  71 N14G20    30.41R WCI -17
FREMONT        CLEAR      2  -5  73 NW16G22   30.45S WCI -18
MILLARD        CLEAR      3  -5  70 NW9G18    30.45R WCI -12
OFFUTT AFB     CLEAR      2  -6  68 NW18G25   30.43R WCI -18
PLATTSMOUTH    CLEAR      1  -6  70 NW14      30.42R WCI -17
WAHOO          FAIR       1  -6  71 MISG      30.45R
$$


USA.gov is the U.S. government's official web portal to all federal, state and local government web resources and services.